Tracking 31027 objects as of 19-Jul-2025
HD Live streaming from Space Station
objects crossing your sky now

QIANFAN-78

Track QIANFAN-78 now!
10-day predictions
QIANFAN-78 is classified as:


NORAD ID: 63164
Int'l Code: 2025-046F
Perigee: 1,064.7 km
Apogee: 1,087.1 km
Inclination: 89.0 °
Period: 106.6 minutes
Semi major axis: 7446 km
RCS: Unknown
Launch date: March 11, 2025
Source: People's Republic of China (PRC)
Launch site: Wenchang Satellite Launch Center (WSC)
Your satellite tracking list
STARLINK-3349
Track 1 satellite(s)




NASA's NSSDC Master Catalog

Two Line Element Set (TLE):
1 63164U 25046F   25199.81687410  .00000145  00000-0  20641-3 0  9994
2 63164  88.9847 335.1223 0015007 187.1857 172.9082 13.50955095 27599
Source of the keplerian elements: AFSPC